All
Chupadera Ranch Airport (Carrizo Springs, TX) 95TX Weather
There is no TAF data available at 95TX or any nearby airports.
There is no METAR data available at 95TX. Showing METAR data for KCZT (27 mi NE).
Recent CZT METAR history (no data for 95TX)
| Date | Time (CDT) | Flight Rules | Wind Dir. | Speed | Type | Height AGL (ft) | Visibility | Temp (°C) | Temp (°F) | Dew Point (°C) | Dew Point (°F) | Rel. Humid. | Pressure | Density Altitude | Remarks |
|---|---|---|---|---|---|---|---|---|---|---|---|---|---|---|---|
| 03-May | 10:15PM | VFR | 160° | 3 kt | 10 miles | 20° | 68° | 14° | 57° | 68% | 30.03 in Hg | 1,088 ft | |||
| 03-May | 09:55PM | VFR | 160° | 3 kt | 10 miles | 20° | 68° | 13° | 55° | 64% | 30.03 in Hg | 1,088 ft | |||
| 03-May | 09:35PM | VFR | 140° | 3 kt | 10 miles | 21° | 69° | 13° | 55° | 60% | 30.02 in Hg | 1,218 ft | |||
| 03-May | 09:15PM | VFR | Calm | 10 miles |
21° | 69° | 12° | 53° | 56% | 30.02 in Hg | 1,218 ft | ||||
| 03-May | 08:55PM | VFR | 150° | 3 kt | 5 miles |
22° | 71° | 12° | 53° | 53% | 30.01 in Hg | 1,348 ft | Haze | ||
| 03-May | 08:35PM | VFR | 150° | 4 kt | 10 miles | 23° | 73° | 12° | 53° | 50% | 30.01 in Hg | 1,468 ft | |||
| 03-May | 08:15PM | VFR | 140° | 4 kt | 10 miles | 24° | 75° | 11° | 51° | 44% | 30.01 in Hg | 1,588 ft | |||
| 03-May | 07:55PM | VFR | 140° | 3 kt | 10 miles | 25° | 77° | 11° | 51° | 41% | 30.00 in Hg | 1,718 ft | |||
| 03-May | 07:35PM | VFR | 140° | 7 kt | 10 miles | 26° | 78° | 10° | 50° | 37% | 30.00 in Hg | 1,838 ft | |||
| 03-May | 07:15PM | VFR | 160° | 9 kt | 10 miles | 26° | 78° | 10° | 50° | 37% | 30.00 in Hg | 1,838 ft | |||
| 03-May | 06:55PM | VFR | 140° | 9 kt | 10 miles | 27° | 80° | 10° | 50° | 34% | 30.01 in Hg | 1,948 ft | |||
| 03-May | 06:35PM | VFR | 130° | 7 kt | 10 miles | 28° | 82° | 10° | 50° | 32% | 30.00 in Hg | 2,078 ft | |||
| 03-May | 06:15PM | VFR | 140° | 7 kt | 10 miles | 28° | 82° | 9° | 48° | 30% | 30.01 in Hg | 2,068 ft | |||
| 03-May | 05:55PM | VFR | 150° | 6 kt | 10 miles | 28° | 82° | 9° | 48° | 30% | 30.02 in Hg | 2,058 ft | |||
| 03-May | 05:15PM | VFR | 130° | 8 kt | 10 miles | 28° | 82° | 8° | 46° | 28% | 30.02 in Hg | 2,058 ft | |||
| 03-May | 04:55PM | VFR | 150° | 4 kt | 10 miles | 28° | 82° | 9° | 48° | 30% | 30.04 in Hg | 2,038 ft | |||
| 03-May | 04:15PM | VFR | 160° | 9 kt | 10 miles | 28° | 82° | 9° | 48° | 30% | 30.07 in Hg | 2,008 ft | |||
| 03-May | 03:55PM | VFR | 120° | 8 kt | 10 miles | 27° | 80° | 8° | 46° | 30% | 30.08 in Hg | 1,878 ft | |||
| 03-May | 03:15PM | VFR | 170° | 6 kt | 10 miles | 27° | 80° | 8° | 46° | 30% | 30.11 in Hg | 1,848 ft | |||
| 03-May | 02:55PM | VFR | 150° | 8 kt | 10 miles | 27° | 80° | 9° | 48° | 32% | 30.12 in Hg | 1,838 ft | |||
| 03-May | 02:35PM | VFR | 180° | 5 kt | 10 miles | 27° | 80° | 9° | 48° | 32% | 30.13 in Hg | 1,828 ft | |||
| 03-May | 02:15PM | VFR | 140° | 8 kt | 10 miles | 27° | 80° | 10° | 50° | 34% | 30.14 in Hg | 1,818 ft | |||
| 03-May | 01:55PM | VFR | 140° | 7 kt | 10 miles | 26° | 78° | 9° | 48° | 34% | 30.15 in Hg | 1,688 ft | |||
| 03-May | 01:35PM | VFR | 200° | 3 kt | 10 miles | 26° | 78° | 10° | 50° | 37% | 30.17 in Hg | 1,668 ft |
Login
| Your browser is unsupported. upgrade your browser |
